Location: Albany
(35.0170°S, 117.8920°E)
Time: 16:16:45
(UTC+08:00)

Explorer 11/Cluster Stage 4 - Pass Details

Date: 23 January 2021
Orbit: 467 x 1257 km, 28.8° (Epoch: 02 March)

Event Time Altitude Azimuth Distance (km) Brightness Sun altitude
Rises 07:08:07 0° 334° (NNW) 3,685 9.7 20.6°
Reaches altitude 10° 07:13:11 10° 6° (N) 2,509 9.2 21.6°
Maximum altitude 07:14:53 11° 23° (NNE) 2,341 9.3 21.9°
Drops below altitude 10° 07:16:31 10° 40° (NE) 2,349 9.5 22.3°
Sets 07:20:43 0° 74° (ENE) 3,062 10.7 23.1°
